Location: Nickerson Gardens
(33.9320°N, 118.2484°W)
Time: 05:44:28
(UTC+00:00)

N. Korean satellite - Pass Details

Date: 28 January 2021
Orbit: 451 x 502 km, 97.2° (Epoch: 08 March)

Event Time Altitude Azimuth Distance (km) Brightness Sun altitude
Rises 12:51:11 0° 20° (NNE) 2,480 10.3 -25.2°
Reaches altitude 10° 12:53:21 10° 29° (NNE) 1,597 9.4 -24.8°
Maximum altitude 12:56:32 37° 98° (E) 725 7.9 -24.1°
Drops below altitude 10° 12:59:41 10° 167° (SSE) 1,576 9.4 -23.5°
Sets 13:01:48 0° 176° (S) 2,443 10.3 -23.0°
